CAPE
1057 1188 1497 1323 1049 1197 838 898 781 393 122 7 288 175 0 0 0 423 931 1384 905 639 825 657 507 504 209 150 144 168 337 475 620 840 816 673 663 688
1222 890 1043 1021 988 1192 1132 1126 747 609 471 535 106 483 93 445 786 923 1060 1643 1209 1222 1110 305 578 594 237 72 55 85 72 54 81 132 276 301 173 116
1161 1121 976 1167 1213 838 1436 1364 1046 1273 733 490 693 681 437 741 962 1361 1595 1640 705 869 273 171 330 492 172 101 0 6 35 36 7 3 21 69 36 0
831 923 977 1146 905 980 1042 1245 1004 1116 857 557 500 787 585 775 339 505 1112 1624 994 1048 447 139 223 313 124 4 1 0 0 0 0 0 0 2 26 2
888 983 799 705 850 508 889 1018 626 767 635 759 812 701 657 220 0 309 964 1290 1352 1352 1303 1532 1181 482 86 34 0 0 0 0 0 0 0 0 0 0
1311 985 556 498 1026 657 867 865 1165 1076 1049 991 743 638 709 1045 715 1027 1174 1196 1144 1140 1278 1050 1158 1114 966 973 16 0 0 0 29 0 0 0 0 0
710 639 630 523 264 330 426 537 623 908 895 1057 941 811 681 954 1178 1053 1050 1144 484 1011 940 1007 960 865 934 1184 362 0 0 52 90 1 0 0 0 0
805 523 0 0 0 0 0 213 208 381 359 739 827 869 808 935 714 124 398 285 510 540 807 944 748 1152 614 1095 462 56 81 101 38 0 0 0 0 0
382 232 0 0 0 0 0 123 253 36 34 179 333 464 334 26 0 0 0 0 43 285 393 729 579 592 368 730 222 118 153 175 0 0 0 0 0 0
0 0 0 0 0 0 0 0 0 0 0 0 0 0 0 0 0 0 0 68 106 99 0 130 212 148 214 404 160 126 143 101 0 0 0 0 0 0
0 0 0 0 0 0 0 0 0 0 0 0 0 0 0 0 0 0 0 0 0 0 0 0 77 0 248 146 4 0 0 0 0 0 0 0 0 0
0 0 0 0 0 0 0 0 0 0 0 0 0 0 0 0 0 4 0 0 0 0 0 0 6 0 0 0 0 0 0 0 0 0 0 0 0 0
0 0 0 0 0 0 0 0 0 0 0 0 0 0 0 0 0 0 0 0 0 0 0 0 0 0 0 0 0 0 0 0 0 0 0 0 0 0
0 0 0 0 0 0 0 0 0 0 0 0 0 0 0 0 0 0 0 0 0 0 0 0 0 0 0 0 0 0 0 0 0 0 0 0 0 0
0 0 0 0 0 0 0 0 0 0 0 0 0 0 0 0 0 0 0 0 0 0 0 0 0 0 0 0 0 0 0 0 0 0 0 0 0 0
0 0 0 0 0 0 0 0 0 0 0 0 0 0 0 0 0 0 0 0 0 0 0 0 0 0 0 0 0 0 0 0 0 0 0 0 0 0
0 0 0 0 0 0 0 0 0 0 0 0 0 0 0 0 0 0 0 0 0 0 0 0 0 0 0 0 0 0 0 0 0 0 0 0 0 0
0 0 0 0 0 0 0 0 0 0 0 0 0 0 0 0 0 0 0 0 0 0 0 0 0 0 0 0 0 0 0 0 0 0 0 0 0 0
0 0 0 0 0 0 0 0 0 0 0 0 0 0 0 0 0 0 0 0 0 0 0 0 0 0 0 0 0 0 0 0 0 0 0 0 0 0
0 0 0 0 0 0 0 0 0 0 0 0 0 0 0 0 0 0 0 0 0 0 0 0 0 0 0 0 0 0 0 0 0 0 0 0 0 0
0 0 0 0 0 0 0 0 0 0 0 0 0 0 0 0 0 0 0 0 0 0 0 0 0 0 0 0 0 0 0 0 0 0 0 0 0 0
0 0 0 0 0 0 0 0 0 0 0 0 0 0 0 0 0 0 0 0 0 0 0 0 0 0 0 0 0 0 0 0 0 0 1 13 6 5
0 0 0 0 0 0 0 0 0 0 0 0 0 0 0 0 0 0 0 0 0 0 0 0 0 0 0 0 1 0 0 0 0 0 0 3 8 11
CIN
-70 -75 -82 -87 -103 -74 -117 -91 -75 -97 -193 -27 -222 -366 -0 -0 -12 -243 -93 -74 -140 -181 -164 -259 -221 -223 -467 -523 -479 -451 -383 -323 -276 -213 -189 -200 -174 -142
-45 -43 -63 -70 -82 -85 -64 -96 -100 -68 -35 -110 -71 -165 -351 -185 -115 -85 -78 -74 -80 -93 -56 -282 -275 -236 -363 -567 -583 -457 -528 -587 -556 -486 -380 -351 -392 -397
-33 -30 -35 -52 -49 -68 -76 -92 -92 -72 -42 -83 -102 -115 -102 -80 -124 -123 -102 -97 -100 -50 -96 -250 -209 -154 -292 -436 -0 -184 -557 -612 -490 -237 -665 -519 -526 -0
-35 -27 -23 -24 -34 -61 -71 -65 -68 -68 -64 -57 -110 -84 -77 -87 -152 -105 -85 -65 -105 -56 -89 -265 -387 -244 -403 -589 -33 -0 -0 -0 -0 -0 -0 -233 -628 -140
-33 -31 -29 -29 -35 -61 -59 -60 -77 -97 -80 -60 -76 -81 -84 -193 -11 -161 -121 -111 -88 -78 -71 -79 -108 -174 -387 -513 -0 -0 -0 -0 -0 -0 -0 -0 -0 -0
-37 -43 -38 -36 -37 -52 -45 -49 -54 -57 -62 -55 -78 -85 -69 -52 -114 -89 -96 -103 -123 -98 -105 -118 -105 -99 -103 -132 -131 -0 -0 -0 -522 -0 -0 -0 -0 -0
-57 -68 -97 -116 -129 -98 -74 -75 -71 -52 -55 -42 -46 -63 -75 -58 -34 -36 -43 -63 -155 -93 -111 -107 -126 -123 -121 -115 -201 -0 -0 -407 -342 -102 -0 -0 -0 -0
-46 -68 -0 -0 -0 -0 -0 -105 -118 -90 -83 -44 -27 -23 -37 -25 -56 -155 -107 -133 -103 -121 -122 -85 -118 -67 -153 -114 -198 -428 -394 -325 -430 -2 -0 -0 -0 -0
-95 -98 -0 -0 -0 -0 -0 -146 -93 -145 -152 -117 -77 -29 -57 -102 -0 -0 -0 -0 -142 -98 -131 -85 -115 -111 -140 -84 -201 -325 -247 -230 -0 -0 -0 -0 -0 -0
-0 -0 -0 -0 -0 -0 -0 -0 -0 -0 -0 -0 -0 -0 -0 -0 -0 -0 -0 -135 -93 -135 -0 -141 -157 -181 -134 -105 -153 -171 -186 -238 -0 -0 -0 -0 -0 -0
-0 -0 -0 -0 -0 -0 -0 -0 -0 -0 -0 -0 -0 -0 -0 -0 -0 -0 -0 -0 -0 -0 -0 -0 -142 -0 -167 -128 -38 -0 -0 -0 -0 -0 -0 -0 -0 -0
-0 -0 -0 -0 -0 -0 -0 -0 -0 -0 -0 -0 -0 -0 -0 -0 -0 -68 -0 -0 -0 -0 -0 -0 -4 -0 -0 -0 -0 -0 -0 -0 -0 -0 -0 -0 -0 -0
-0 -0 -0 -0 -0 -0 -0 -0 -0 -0 -0 -0 -0 -0 -0 -0 -0 -0 -0 -0 -0 -0 -0 -0 -0 -0 -0 -0 -0 -0 -0 -0 -0 -0 -0 -0 -0 -0
-0 -0 -0 -0 -0 -0 -0 -0 -0 -0 -0 -0 -0 -0 -0 -0 -0 -0 -0 -0 -0 -0 -0 -0 -0 -0 -0 -0 -0 -0 -0 -0 -0 -0 -0 -0 -0 -0
-0 -0 -0 -0 -0 -0 -0 -0 -0 -0 -0 -0 -0 -0 -0 -0 -0 -0 -0 -0 -0 -0 -0 -0 -0 -0 -0 -0 -0 -0 -0 -0 -0 -0 -0 -0 -0 -0
-0 -0 -0 -0 -0 -0 -0 -0 -0 -0 -0 -0 -0 -0 -0 -0 -0 -0 -0 -0 -0 -0 -0 -0 -0 -0 -0 -0 -0 -0 -0 -0 -0 -0 -0 -0 -0 -0
-0 -0 -0 -0 -0 -0 -0 -0 -0 -0 -0 -0 -0 -0 -0 -0 -0 -0 -0 -0 -0 -0 -0 -0 -0 -0 -0 -0 -0 -0 -0 -0 -0 -0 -0 -0 -0 -0
-0 -0 -0 -0 -0 -0 -0 -0 -0 -0 -0 -0 -0 -0 -0 -0 -0 -0 -0 -0 -0 -0 -0 -0 -0 -0 -0 -0 -0 -0 -0 -0 -0 -0 -0 -0 -0 -0
-0 -0 -0 -0 -0 -0 -0 -0 -0 -0 -0 -0 -0 -0 -0 -0 -0 -0 -0 -0 -0 -0 -0 -0 -0 -0 -0 -0 -0 -0 -0 -0 -0 -0 -0 -0 -0 -0
-0 -0 -0 -0 -0 -0 -0 -0 -0 -0 -0 -0 -0 -0 -0 -0 -0 -0 -0 -0 -0 -0 -0 -0 -0 -0 -0 -0 -0 -0 -0 -0 -0 -0 -0 -0 -0 -0
-0 -0 -0 -0 -0 -0 -0 -0 -0 -0 -0 -0 -0 -0 -0 -0 -0 -0 -0 -0 -0 -0 -0 -0 -0 -0 -0 -0 -0 -0 -0 -0 -0 -1 -0 -0 -0 -0
-0 -0 -0 -0 -0 -0 -0 -0 -0 -0 -0 -0 -0 -0 -0 -0 -0 -0 -0 -0 -0 -0 -0 -0 -0 -0 -0 -0 -0 -0 -0 -0 -0 -0 -0 -0 -0 -0
-0 -0 -0 -0 -0 -0 -0 -0 -0 -0 -0 -0 -0 -0 -0 -0 -0 -0 -0 -0 -0 -0 -0 -0 -0 -0 -0 -0 -0 -0 -0 -0 -1 -0 -0 -0 -0 -1
Wind_Speed
4 4 2 1 2 3 2 4 4 4 6 4 5 6 6 6 12 12 5 9 11 12 12 9 7 6 6 7 5 5 6 7 8 8 9 9 8 8
1 3 3 1 3 3 2 2 2 2 1 3 7 6 7 8 8 7 6 9 11 11 12 6 8 9 7 7 7 6 6 7 8 9 8 9 9 9
2 2 1 2 2 3 3 3 4 3 3 4 3 2 4 6 9 5 6 7 3 11 11 6 9 10 10 7 7 8 6 5 6 7 8 9 9 10
6 2 2 1 2 3 2 4 3 1 2 3 3 4 2 2 5 3 7 8 5 10 10 9 7 13 13 11 9 9 8 5 4 6 8 8 9 10
5 5 6 3 2 0 2 3 3 2 2 2 4 1 2 2 4 3 4 5 6 11 10 11 9 10 13 15 12 11 8 5 3 4 7 8 8 10
4 2 4 3 4 3 1 1 1 3 2 2 3 3 1 3 3 3 8 5 8 8 8 9 10 11 12 15 12 5 4 6 6 3 4 8 9 10
4 5 7 8 8 5 2 2 3 2 2 2 2 2 2 3 3 3 2 4 7 2 7 6 5 7 9 11 8 2 4 6 7 7 8 8 9 9
4 5 7 10 8 9 7 4 2 1 2 1 0 2 3 2 2 4 4 4 4 3 6 7 3 4 5 6 13 10 5 5 9 9 9 8 4 5
5 5 6 6 7 5 6 7 8 7 2 1 1 1 3 2 3 4 4 2 3 5 3 3 4 5 4 5 13 13 9 9 11 12 10 9 6 6
8 8 7 5 7 5 5 6 7 6 7 4 3 5 4 2 1 1 3 4 3 2 6 3 5 7 5 4 12 15 10 10 12 12 10 8 7 8
6 7 6 6 9 11 7 7 6 6 8 10 11 10 7 2 2 3 6 4 4 3 6 3 4 7 3 4 7 14 14 14 17 16 14 8 5 7
6 6 9 6 7 9 6 5 6 5 7 10 9 11 9 7 7 4 3 4 3 4 7 5 5 5 5 4 6 8 11 16 17 16 22 19 14 7
4 4 4 8 9 9 8 5 2 5 5 5 6 7 7 8 8 8 7 5 5 4 8 5 7 5 4 5 5 7 10 10 9 12 17 19 15 7
5 3 3 8 9 8 6 9 11 6 4 6 7 7 7 7 7 7 7 6 5 5 9 11 3 3 4 4 4 7 9 7 11 11 10 13 14 14
3 3 5 8 10 10 13 12 10 6 5 6 5 5 4 3 6 7 9 8 7 10 10 10 7 6 2 2 4 5 7 7 12 11 11 10 9 9
6 4 9 9 10 6 6 6 5 4 4 4 3 2 3 7 7 5 5 8 6 9 10 10 7 7 5 5 3 5 5 5 10 9 10 9 7 8
4 1 3 3 4 4 4 4 4 4 5 3 4 5 5 7 5 5 5 5 6 6 8 7 8 7 7 5 5 5 7 9 8 9 11 11 10 9
1 1 2 3 4 3 4 4 3 5 4 4 4 4 4 5 5 5 5 5 6 6 6 8 9 9 6 5 10 4 9 8 7 11 10 12 13 10
1 2 4 4 4 4 5 5 4 3 4 5 5 5 5 4 5 5 5 4 5 3 3 5 7 8 11 10 5 15 12 9 11 10 10 10 13 13
1 4 5 5 4 4 4 4 4 5 5 5 5 5 6 4 5 4 5 4 4 4 4 4 6 7 7 9 8 7 11 10 11 12 14 12 12 20
3 5 5 5 4 4 4 4 4 4 5 5 5 5 4 4 4 4 5 8 8 5 6 7 7 15 5 6 6 9 10 15 12 11 14 13 15 17
5 6 5 5 6 4 4 4 4 5 5 5 5 4 4 4 4 5 5 4 4 4 3 3 5 5 4 6 8 11 9 10 13 17 17 15 13 16
4 5 5 5 5 4 3 4 5 4 5 5 4 4 4 3 4 4 3 3 3 3 3 6 6 5 6 8 13 11 15 14 10 11 12 22 24 25
Wind_Direction
354 10 352 51 39 29 130 201 172 172 219 249 258 229 251 278 263 256 285 278 258 267 276 252 244 249 242 234 201 208 239 250 249 240 234 232 228 226
170 24 12 6 17 2 341 357 85 144 53 177 230 250 218 240 248 275 288 288 301 298 290 261 251 265 260 238 219 227 227 235 250 251 241 232 224 226
266 142 353 1 334 352 358 3 18 28 74 296 262 247 348 358 331 316 301 291 322 309 297 280 264 274 277 269 251 232 237 232 239 253 251 236 226 223
251 233 270 0 25 69 22 14 30 21 69 331 304 330 349 337 333 341 345 2 349 6 331 328 289 292 301 289 255 258 253 206 206 224 253 239 222 222
227 199 216 226 209 160 16 12 359 23 21 19 298 332 322 334 324 333 355 336 355 346 10 22 349 306 296 299 284 220 248 272 229 192 207 242 223 212
340 13 227 221 186 201 203 313 21 14 23 27 333 332 12 327 353 343 350 344 348 343 360 358 346 334 339 339 4 227 222 276 293 290 205 213 222 214
329 3 25 30 34 63 76 25 15 4 350 19 345 328 327 347 358 315 325 319 322 353 345 329 343 352 357 348 344 333 232 254 294 313 291 211 200 201
298 63 71 48 32 28 26 357 275 272 303 13 36 331 308 302 324 344 340 353 342 338 333 329 20 4 341 346 348 349 286 317 319 311 298 283 260 202
34 65 70 39 36 0 353 2 25 49 97 147 287 258 278 348 356 352 341 326 271 321 357 325 343 354 315 355 356 11 12 348 323 313 299 299 298 278
72 85 85 51 21 5 18 39 43 35 22 23 338 301 280 333 154 207 263 292 299 32 8 359 350 345 330 17 352 9 344 330 321 317 318 288 288 293
69 78 88 67 13 22 47 35 20 11 350 348 324 302 320 87 69 44 18 23 346 338 6 7 343 333 323 20 0 11 7 15 348 335 336 345 320 317
81 72 62 72 45 39 65 47 26 348 346 348 5 33 35 58 69 69 36 48 2 344 360 345 352 359 338 354 350 13 1 356 347 358 13 4 360 350
86 68 42 29 24 23 33 40 339 311 343 32 33 32 26 25 36 36 38 52 32 49 347 17 24 351 346 319 331 6 350 348 2 19 2 8 12 7
103 89 46 22 7 17 25 14 29 45 41 47 47 33 33 31 14 17 19 29 67 86 38 33 35 13 341 337 345 331 342 360 16 5 356 348 347 349
103 95 46 69 63 61 59 52 46 41 37 49 35 27 21 23 20 18 21 21 48 42 36 29 22 352 31 317 302 337 352 338 5 356 352 351 348 340
18 37 98 93 79 69 54 42 55 50 67 64 43 23 29 31 37 22 20 8 37 9 7 10 8 6 341 351 12 3 6 348 336 340 332 334 340 3
330 33 81 71 78 77 73 65 57 51 52 34 27 26 24 34 26 18 28 25 42 7 353 356 355 18 353 351 11 359 357 344 337 342 348 334 334 332
83 118 124 133 126 127 117 85 56 48 33 65 58 49 38 33 34 23 41 31 32 7 356 354 6 0 7 345 8 349 354 334 350 342 340 330 321 330
42 139 106 93 87 85 91 102 72 52 53 64 59 53 38 32 40 34 31 27 16 352 357 353 18 7 1 351 324 16 329 349 345 340 336 323 311 315
189 120 108 98 84 81 77 79 87 70 51 44 50 52 36 26 32 23 27 20 6 4 360 350 12 13 6 342 320 327 5 357 346 335 330 325 307 304
121 96 103 91 81 73 67 66 87 84 85 68 48 49 36 47 32 28 23 20 20 18 7 360 4 0 337 321 333 330 332 333 327 326 327 321 327 325
101 98 91 97 94 86 62 54 68 66 72 76 65 51 35 39 30 24 28 29 12 1 327 325 324 328 334 337 325 320 320 320 320 314 312 312 318 312
89 95 108 115 107 97 73 78 87 84 77 69 57 41 34 32 37 43 39 23 342 341 329 337 336 341 340 332 329 321 324 326 325 326 323 316 308 299